Wind_Speed
63 63 63 62 61 60 60 59 59 59 59 59 59 58 57 56 55 55 55 55 55 55 55 55 55 54 54 54 54 54 54 54 54 54 55 55 55 55 55 56 56 56 57 58 59 59 60 61 62 62 62 62 63 66 70 74 74 73 71 72 72 73 73 73 74 76 76 75 75 75 74 73 73 72 71 70 69 67 65 65 64 64 64 64 64
66 66 66 66 65 64 63 62 62 62 61 61 62 62 61 60 58 58 58 58 58 58 58 58 57 57 57 57 57 56 56 56 57 57 57 57 57 57 57 57 57 58 58 59 59 60 61 62 63 64 64 64 64 65 67 71 75 76 75 74 73 73 73 73 74 75 76 76 76 76 77 76 76 76 75 74 73 71 70 69 67 67 67 67 67
69 68 69 69 69 68 67 67 67 65 64 64 65 64 64 62 61 61 60 60 60 61 61 61 61 60 60 60 60 59 59 59 59 59 59 59 59 59 59 59 59 59 59 60 61 61 62 63 64 65 66 67 67 67 67 68 70 74 76 76 75 74 73 73 73 74 75 76 76 76 76 77 78 78 77 76 75 75 74 72 70 69 69 69 69
69 69 70 71 71 70 71 71 70 68 68 69 68 67 66 65 64 63 63 63 62 62 63 64 64 63 63 62 62 62 62 62 62 62 62 62 62 62 61 61 61 61 61 61 62 62 63 64 65 65 66 67 68 69 69 70 70 71 73 74 75 75 75 74 73 73 74 76 76 76 75 75 77 78 78 78 78 77 76 74 71 70 70 71 71
67 67 68 69 70 70 72 72 72 71 72 72 72 72 70 68 67 66 66 66 65 65 65 66 67 67 66 65 65 65 65 65 66 66 65 65 65 65 64 64 64 64 63 63 63 64 64 65 66 66 67 68 69 69 70 71 71 71 72 73 73 74 75 75 75 74 74 75 76 77 76 75 76 76 77 78 79 80 80 79 76 74 74 74 74
64 65 67 67 67 69 70 71 72 73 73 74 74 74 73 72 72 70 69 68 68 68 68 69 70 70 69 68 68 68 69 69 69 69 69 69 69 68 68 68 68 67 67 66 66 66 66 67 67 68 69 69 70 70 71 71 71 72 72 73 73 73 74 75 76 76 76 76 77 77 77 77 77 78 79 78 78 79 80 80 80 79 78 78 77
65 66 67 67 67 68 69 70 71 72 73 73 74 74 75 75 75 74 73 72 71 71 71 72 72 72 72 71 71 72 72 72 72 71 72 72 72 72 72 71 71 70 70 70 69 69 69 69 70 70 70 71 71 71 71 71 72 73 73 73 73 73 74 75 75 76 77 78 78 79 78 79 79 80 81 81 80 81 81 81 80 80 80 79 78
68 68 68 68 69 69 70 70 70 71 71 72 72 73 74 75 76 76 75 74 74 74 75 75 75 76 75 75 75 76 76 75 74 74 75 75 75 75 75 75 74 74 73 73 73 73 73 72 72 73 73 73 73 73 72 72 73 74 74 74 74 74 74 75 75 76 77 78 79 80 80 80 81 81 82 83 82 82 83 82 82 82 82 81 80
69 70 70 70 70 71 71 71 71 71 71 71 71 71 72 73 74 75 75 74 74 76 78 80 80 80 80 79 79 79 79 78 77 77 78 78 78 78 78 78 77 77 77 77 76 76 76 76 76 76 76 76 76 75 75 75 74 75 75 74 74 74 75 75 75 76 76 77 79 80 81 82 83 84 84 85 84 83 83 83 83 83 84 83 82
70 71 72 72 72 72 73 73 73 72 72 71 71 71 71 70 71 72 71 72 73 75 79 83 84 83 84 83 83 83 82 81 80 81 81 81 80 80 80 80 80 80 79 79 80 80 79 79 79 79 80 79 79 78 78 77 77 76 76 76 75 75 76 76 77 77 77 77 78 80 81 82 84 85 86 86 86 85 84 84 83 83 84 84 83
71 72 73 73 74 74 74 74 74 74 74 73 73 72 71 70 70 68 67 69 73 76 80 83 84 84 86 87 87 87 86 85 84 84 84 83 83 83 83 82 82 82 82 82 82 82 82 82 82 83 83 83 82 82 81 81 80 79 79 79 78 78 79 79 79 79 79 79 80 81 81 83 85 86 86 87 87 87 85 85 84 84 84 84 84
72 73 74 75 75 76 76 76 76 75 75 75 74 73 72 71 71 69 68 70 73 76 79 82 84 85 86 87 89 91 91 89 88 87 87 86 85 85 85 85 84 84 84 84 84 85 85 85 85 85 85 85 84 84 84 84 83 83 82 82 82 82 83 83 83 83 82 82 82 83 84 85 86 87 88 87 88 88 87 86 85 85 85 85 84
73 74 75 76 76 77 77 77 77 76 76 76 75 75 75 74 73 70 69 70 73 76 79 82 83 84 85 88 90 91 91 91 90 90 90 90 89 88 88 87 86 86 86 86 87 87 87 87 87 87 87 86 86 86 86 86 86 86 85 85 85 86 86 86 86 86 86 86 86 87 87 88 88 89 90 90 89 89 89 88 87 86 86 85 85
74 75 76 77 78 78 78 78 77 77 77 77 76 76 76 76 75 73 71 71 72 75 78 81 82 82 84 87 90 91 91 91 90 91 93 94 93 93 92 90 90 89 89 89 89 89 89 89 89 88 88 88 88 88 88 87 87 87 87 87 88 88 89 89 89 89 89 89 89 89 90 91 91 91 93 94 93 92 92 91 90 89 87 86 86
76 76 77 78 78 79 79 78 78 78 78 78 78 77 77 76 76 75 75 74 74 75 77 80 81 82 84 85 86 88 90 91 91 91 93 95 96 96 95 94 93 93 92 92 91 91 91 91 90 90 90 90 90 90 89 89 89 89 89 89 90 90 90 91 91 91 91 92 92 92 92 93 93 94 95 97 96 95 94 94 93 92 91 89 88
78 78 78 79 79 79 79 78 78 78 78 78 77 77 77 77 76 76 76 75 75 76 78 80 82 84 84 83 83 83 86 88 90 91 93 95 97 98 97 96 95 95 95 95 95 94 94 94 93 92 92 92 92 92 91 90 90 90 90 91 91 92 92 93 93 94 94 94 94 94 94 94 95 95 97 98 99 98 97 96 96 96 95 93 92
80 80 80 80 79 79 79 78 78 79 79 78 77 76 76 77 77 77 76 75 75 76 78 81 84 84 82 81 81 81 83 85 87 89 91 93 96 98 98 97 96 97 97 97 97 97 97 97 96 96 95 95 95 95 94 94 93 92 92 92 93 93 94 95 96 97 97 97 96 96 95 95 96 97 98 99 100 100 99 98 98 99 98 97 96
81 81 81 80 79 79 78 78 78 78 78 78 77 76 75 75 76 77 76 75 75 76 78 81 85 84 80 79 80 80 82 84 85 86 87 88 90 93 95 95 95 96 97 97 98 98 98 98 98 98 98 98 98 98 98 97 96 96 95 95 96 97 98 100 101 101 101 100 100 100 99 99 99 100 99 99 100 101 100 99 100 101 100 98 98
80 80 79 79 79 78 78 77 77 77 77 77 76 75 74 74 75 76 76 76 76 77 78 81 83 83 80 78 78 78 79 81 83 84 84 85 86 88 90 91 91 91 93 95 96 96 97 98 98 99 99 99 99 99 99 99 99 99 99 98 99 100 102 103 104 104 104 105 105 105 105 105 105 104 103 102 103 103 101 100 101 102 101 100 100
77 76 76 76 75 75 75 75 75 75 75 75 74 74 73 74 74 74 75 76 78 78 79 79 81 81 79 77 75 75 76 77 79 80 81 82 83 84 86 88 88 87 87 89 90 91 93 94 96 97 98 98 98 98 99 99 100 100 100 100 101 102 103 104 105 106 107 108 108 108 109 109 108 107 107 107 107 107 105 103 102 102 102 101 100
71 71 71 71 71 71 71 71 72 72 72 72 72 72 73 73 73 73 74 75 77 78 79 79 79 79 77 75 73 72 73 74 76 77 78 79 81 82 83 84 85 84 83 83 83 83 84 86 87 88 89 90 91 92 93 94 95 95 96 96 97 99 100 102 104 105 107 108 109 110 110 110 109 108 108 109 109 108 106 103 102 102 102 102 101
67 67 67 67 66 66 67 68 69 69 69 68 68 69 70 71 71 72 73 74 75 77 78 78 78 77 74 71 70 70 70 71 73 74 75 76 78 79 79 80 81 81 80 79 78 76 76 76 75 75 76 77 79 81 83 85 87 88 89 89 91 93 95 97 98 100 102 103 105 106 107 107 106 107 108 107 106 105 103 101 100 99 100 101 102
64 64 64 63 62 62 63 64 65 65 65 64 63 65 67 68 69 69 70 72 73 75 77 77 76 74 71 69 68 68 68 69 70 72 73 74 76 77 78 78 79 78 78 78 76 73 70 69 68 67 67 68 69 71 73 75 77 78 79 80 82 85 89 91 94 96 97 98 98 99 100 102 102 102 101 97 94 92 92 93 95 96 98 100 101
62 61 61 60 59 59 59 60 61 60 60 59 60 62 64 64 65 67 68 70 71 73 74 74 73 71 70 69 67 67 67 68 69 70 72 73 74 75 76 77 77 77 77 76 75 72 68 65 63 62 62 62 62 64 66 68 68 68 69 71 75 79 83 86 89 90 91 91 92 93 93 93 93 91 88 84 81 79 79 81 84 89 93 97 99
58 58 58 57 56 56 57 57 58 57 56 56 58 60 61 62 63 65 67 68 69 70 70 69 68 69 70 69 68 67 67 67 68 70 71 73 73 74 74 75 76 75 75 74 73 70 67 64 62 61 59 58 58 60 61 62 61 62 65 69 73 76 78 80 82 83 84 85 85 85 84 84 83 81 79 77 75 74 73 74 75 79 84 89 93
53 54 55 54 54 54 55 56 56 55 54 55 58 60 60 61 62 65 68 69 68 66 65 63 64 66 68 68 68 67 67 68 69 70 71 72 73 73 73 74 74 74 73 71 69 67 66 64 62 60 58 56 55 55 55 57 59 62 66 69 70 71 73 75 77 78 79 79 79 78 77 77 75 74 73 71 70 69 69 69 70 72 76 80 84
49 51 52 52 53 54 55 55 56 55 54 55 58 59 60 61 64 68 70 68 64 61 61 60 61 64 66 67 67 67 68 68 69 70 71 72 72 73 73 73 72 72 71 68 66 65 64 62 61 59 55 53 51 51 53 56 59 62 63 64 65 67 70 72 73 73 73 73 72 71 70 69 68 67 65 64 63 64 64 64 65 67 70 73 75
49 50 52 52 53 54 54 54 54 54 55 56 58 59 59 62 66 70 70 66 62 60 59 60 61 63 65 66 66 66 66 67 68 69 70 71 72 72 73 72 72 71 68 65 64 63 61 60 57 54 51 49 50 52 54 56 57 58 58 60 63 65 67 67 67 66 65 64 63 62 61 60 59 58 57 56 56 57 58 58 60 62 65 67 69
51 53 53 53 53 53 53 53 54 55 56 57 58 59 60 63 66 68 67 66 64 61 58 58 59 61 62 64 65 65 66 67 69 69 69 69 69 70 71 71 70 69 67 64 62 61 59 56 53 50 49 49 51 52 53 54 54 55 56 58 59 60 60 60 59 57 56 55 54 53 52 51 52 51 51 50 51 52 52 53 54 57 59 61 63
51 51 50 50 51 52 53 54 56 56 57 56 57 58 60 61 64 65 64 64 63 62 59 58 57 58 60 62 63 65 67 68 69 69 68 67 67 66 66 67 67 66 64 61 59 57 54 51 49 48 48 49 50 51 51 51 51 52 52 53 53 53 53 52 51 50 48 46 46 45 46 47 48 48 47 48 49 49 49 49 50 51 53 55 58
47 47 47 47 50 52 54 54 55 55 55 55 56 57 58 59 60 61 61 61 61 60 58 57 57 58 59 61 63 64 65 66 66 66 66 66 65 64 63 63 62 61 60 57 54 51 49 47 46 46 47 48 49 49 48 48 47 47 47 47 47 47 47 46 45 43 42 41 41 41 43 44 45 45 45 47 48 47 47 47 47 48 49 51 54
43 44 45 46 49 51 51 51 52 53 54 54 54 55 56 56 56 57 57 57 57 57 57 58 60 61 61 62 62 62 62 62 62 62 62 62 62 61 60 59 58 56 54 52 50 47 44 43 43 44 46 47 47 45 44 44 43 42 42 42 41 42 42 42 41 40 39 39 38 39 40 42 43 43 44 45 45 45 45 45 46 47 47 48 50
40 41 42 44 45 45 46 47 49 50 50 51 52 53 54 54 55 55 55 56 56 57 58 60 61 61 60 59 59 58 58 58 57 57 57 58 58 57 56 54 53 52 50 47 44 41 40 40 42 44 44 43 41 40 39 39 39 38 38 38 38 39 40 40 39 38 37 35 35 36 37 39 40 41 42 42 42 42 42 43 43 45 46 47 48
36 37 38 39 39 40 41 43 44 45 46 48 50 51 52 52 52 53 53 53 55 56 57 58 57 57 56 55 55 54 53 53 52 52 52 52 52 52 52 51 49 47 43 40 38 37 37 39 40 40 39 37 36 36 35 35 35 35 36 37 37 37 37 37 36 35 33 32 32 33 35 37 38 39 40 40 39 39 39 40 41 42 44 45 46
33 34 35 35 36 37 37 38 39 40 42 44 45 46 46 47 47 48 49 50 51 52 52 52 51 51 50 49 49 48 48 47 47 47 47 48 48 49 48 47 43 40 36 34 33 33 36 37 35 34 33 33 33 32 32 32 33 34 35 36 36 35 34 33 32 31 31 30 30 31 33 34 35 36 37 36 36 36 37 37 39 40 42 43 44
29 30 32 33 34 35 35 36 36 37 38 39 39 40 41 42 43 44 44 45 46 46 46 46 45 45 44 44 44 43 43 43 43 43 44 45 45 44 42 40 37 34 31 30 29 30 32 33 31 30 30 30 30 30 30 31 32 33 34 34 34 33 31 30 29 29 28 28 29 30 31 31 32 32 32 32 33 33 34 35 37 38 40 41 42
25 26 28 29 30 31 32 33 34 35 35 36 36 37 37 38 39 39 40 40 41 41 41 41 40 40 40 39 39 39 39 40 40 40 41 41 41 39 37 34 32 29 27 27 27 28 29 29 29 29 28 28 28 29 29 30 31 32 32 32 31 30 29 28 27 27 27 26 26 27 28 28 28 29 29 29 30 31 32 33 34 36 37 38 39
22 22 23 25 26 28 29 30 31 32 32 33 33 33 34 34 35 35 36 36 37 37 36 36 36 36 36 36 36 36 37 37 38 38 38 38 37 35 33 30 27 26 25 25 25 26 26 26 27 27 27 27 27 27 27 28 30 31 30 29 28 28 27 26 26 26 25 24 24 25 25 25 26 26 27 28 28 29 30 31 32 33 33 34 35
18 17 18 20 22 24 25 26 27 27 28 28 29 30 30 31 31 31 32 32 32 31 31 32 32 32 33 33 34 35 35 35 36 36 36 35 33 31 28 25 24 23 24 24 24 23 24 25 26 26 26 26 26 25 25 27 29 29 28 27 26 26 25 25 25 24 24 23 23 23 23 24 24 25 26 27 27 28 28 29 29 29 30 31 32
13 13 15 16 18 20 21 22 22 23 24 25 26 26 27 27 27 27 27 27 27 28 28 29 29 30 31 32 33 33 33 34 35 34 33 31 29 27 25 23 22 22 22 22 22 22 22 23 25 26 26 25 25 25 25 26 27 26 25 25 24 24 23 23 23 23 22 22 22 22 23 23 24 25 25 26 26 26 27 27 27 27 28 28 29
12 13 14 16 17 19 20 20 21 22 23 24 24 24 24 24 24 24 24 24 25 26 26 27 28 29 30 32 32 31 31 33 34 32 31 29 26 23 22 21 20 20 20 21 21 21 22 23 24 25 25 25 25 25 25 25 25 24 23 23 23 22 21 21 21 21 21 21 21 22 23 23 24 24 24 24 25 25 25 25 25 26 26 27 27
15 16 17 18 20 20 21 21 22 23 23 23 23 23 23 22 22 22 22 23 24 25 25 26 27 28 30 31 30 29 30 32 32 30 28 26 23 21 20 19 19 19 19 20 21 21 22 23 23 23 24 24 25 25 24 24 23 23 23 23 23 22 20 20 20 20 20 21 21 22 22 23 23 23 23 23 23 23 23 23 24 24 25 25 26
19 20 21 22 22 22 22 23 23 23 22 22 22 22 21 21 21 22 22 23 24 24 24 26 27 27 28 30 29 27 28 30 29 27 26 24 21 19 18 17 18 18 19 20 21 22 22 22 22 22 22 23 23 23 23 22 23 23 22 22 22 21 20 19 19 19 19 20 20 21 22 22 22 22 21 21 21 21 21 21 22 22 23 23 24
22 23 23 22 22 23 23 23 23 22 21 21 21 20 20 21 21 22 22 23 23 23 24 26 27 26 27 29 28 26 27 28 27 24 23 22 19 17 17 16 17 18 19 20 21 21 21 22 22 21 21 22 22 21 21 21 22 22 21 21 20 20 19 18 18 18 18 19 19 20 20 20 20 20 20 19 19 19 19 19 19 20 20 21 21
25 25 23 22 23 23 23 22 22 21 21 20 20 21 21 22 22 22 22 22 22 22 24 26 27 25 26 28 26 24 25 26 25 22 21 20 18 17 16 16 16 17 18 19 20 20 21 22 22 21 20 21 21 20 20 21 21 20 20 20 19 19 19 18 18 17 17 18 18 19 19 19 19 18 18 18 17 17 17 17 17 18 18 19 19
26 25 24 24 24 23 23 22 22 22 22 22 22 22 22 23 23 23 22 22 22 23 25 27 27 25 25 26 25 23 23 24 23 21 20 20 18 17 16 15 16 17 18 19 19 20 21 21 20 20 20 20 20 20 20 20 20 20 19 19 19 19 18 18 17 17 17 17 17 17 17 17 17 17 17 16 15 15 15 16 16 16 17 17 17
27 26 26 25 25 24 23 24 24 24 24 23 23 23 23 24 24 24 24 23 24 25 26 27 26 24 24 25 24 22 22 23 22 21 20 20 19 17 16 15 15 16 18 18 18 19 20 20 19 19 20 20 20 19 19 19 18 18 18 18 18 19 19 18 17 16 16 16 16 16 15 15 15 15 15 14 13 14 14 14 15 15 15 15 15
29 29 28 27 26 25 25 25 26 26 25 25 24 24 25 25 25 25 25 25 25 26 27 27 26 24 23 23 23 22 21 22 22 21 20 20 19 18 16 15 15 16 17 18 18 19 20 19 19 19 20 20 19 18 18 17 17 16 17 18 18 18 18 18 17 16 15 15 15 14 14 14 14 14 13 13 12 12 13 13 13 13 13 12 12
33 32 31 29 29 28 28 27 27 27 27 27 26 26 27 27 27 27 26 26 26 27 27 27 26 24 22 22 22 22 21 22 23 22 21 20 20 18 17 16 16 16 17 18 18 19 19 18 18 19 19 19 18 17 16 16 15 15 16 17 17 17 18 18 17 15 14 14 13 13 13 13 13 12 12 12 12 12 11 11 11 10 10 9 10
36 35 33 32 32 31 30 30 30 30 29 29 29 29 29 30 29 28 27 27 27 28 28 27 26 25 23 22 22 22 22 22 23 23 23 21 20 19 18 17 16 17 17 17 18 18 18 17 18 18 18 18 16 15 14 14 14 15 17 18 18 17 18 18 17 15 14 13 12 12 12 12 12 12 12 11 11 10 10 9 9 8 8 8 8
38 37 36 35 34 34 34 33 33 32 32 32 32 32 32 32 31 30 29 29 29 28 28 27 26 25 23 22 22 22 23 23 24 24 24 23 21 20 18 18 17 17 17 18 18 17 17 17 17 17 17 17 15 13 13 13 15 16 18 19 19 18 18 18 17 16 14 12 12 11 11 11 11 11 11 11 10 9 8 7 7 7 7 7 8
Wind_Direction
259 259 259 259 258 257 256 256 256 255 255 254 254 253 252 251 250 250 250 250 249 249 248 247 247 247 248 248 249 249 249 249 248 247 245 244 243 243 243 243 243 243 242 242 242 242 242 242 242 242 241 240 237 236 236 237 238 238 238 239 241 243 245 247 248 250 250 249 249 250 249 249 251 252 254 256 256 258 261 262 261 262 263 265 267
259 259 259 259 258 258 257 256 255 255 255 255 255 254 252 251 249 249 249 249 249 250 249 248 247 246 246 247 248 248 248 249 249 249 248 247 246 245 244 243 243 244 244 244 243 243 243 243 243 244 244 244 242 240 239 238 239 241 242 241 241 242 243 245 247 249 251 251 251 252 252 252 253 254 254 254 254 256 259 261 261 261 261 262 265
258 258 258 258 258 257 257 257 256 255 255 255 254 254 254 253 251 250 249 248 249 249 250 250 248 247 246 246 246 247 247 248 248 248 248 248 248 247 246 246 245 244 244 245 245 245 245 244 244 244 245 245 245 245 243 242 242 242 243 245 245 245 245 245 247 249 251 252 252 252 254 254 255 255 255 255 255 255 256 258 259 260 259 260 263
259 259 258 258 258 257 257 257 256 255 255 254 254 254 253 253 253 252 252 250 249 249 249 249 249 248 247 246 246 246 246 246 247 247 247 248 248 248 248 248 247 247 246 246 246 246 246 246 246 246 246 246 246 246 246 246 245 245 245 245 246 248 248 248 249 250 252 254 254 253 254 255 255 255 255 255 255 254 254 255 256 257 257 258 260
262 261 260 260 259 258 258 257 256 255 254 254 254 254 253 253 252 252 252 252 251 250 249 249 249 248 248 247 247 246 246 245 245 246 246 247 247 247 248 248 248 248 248 248 247 247 247 247 247 247 248 247 247 247 247 248 248 247 247 247 247 248 249 250 251 252 253 254 255 255 255 256 256 256 255 254 254 254 254 254 254 253 254 255 257
264 263 261 260 259 258 258 257 256 255 254 253 253 253 253 252 252 250 250 250 251 251 251 250 250 249 248 247 247 247 247 246 245 245 245 246 246 246 246 246 247 247 248 248 248 249 249 249 248 248 249 249 249 248 248 249 249 249 249 249 249 249 249 250 251 252 254 255 257 257 257 257 258 259 258 257 256 256 256 256 254 253 253 253 255
265 264 263 262 260 259 259 258 257 257 255 254 253 252 252 252 251 251 250 249 249 250 251 251 251 251 250 248 247 247 247 247 246 246 245 245 245 245 246 246 246 246 246 247 247 248 249 249 249 249 249 250 250 249 250 250 250 250 251 250 250 250 250 251 251 252 253 255 257 258 258 258 259 260 260 260 259 259 259 258 258 257 256 255 256
265 265 264 264 263 263 262 261 260 259 258 256 254 253 252 251 251 250 250 250 250 250 250 250 250 250 250 249 249 247 247 247 246 246 246 246 245 245 245 245 245 245 246 246 246 247 248 248 249 249 250 250 250 250 250 251 251 251 251 251 252 252 252 252 252 252 252 254 255 257 258 258 258 259 260 260 260 260 260 260 260 260 260 259 259
265 265 265 265 264 264 264 264 263 261 260 259 257 255 253 252 251 250 249 249 250 250 250 250 249 249 249 249 249 248 248 247 247 247 247 246 246 246 245 245 245 245 245 246 246 247 247 248 248 249 249 250 250 250 251 251 251 252 252 252 252 253 253 253 253 253 253 254 254 256 257 258 258 258 258 259 259 259 260 260 260 261 261 261 260
264 264 265 265 265 264 264 264 264 264 263 262 260 259 256 254 253 252 251 250 248 248 249 249 248 248 249 249 249 249 248 248 248 247 247 247 247 247 246 246 246 245 245 246 246 246 247 247 248 248 249 249 250 250 251 251 251 252 252 253 253 253 253 254 254 254 254 255 255 255 256 257 257 257 258 258 259 258 259 259 260 260 260 260 260
262 263 263 264 264 264 264 264 264 264 264 263 262 261 260 258 256 254 253 252 249 247 247 248 248 248 248 249 249 249 248 248 248 248 248 248 248 248 248 247 247 247 247 247 247 247 247 247 248 248 249 249 250 250 251 251 251 252 252 253 253 253 253 253 254 254 254 255 255 256 256 257 257 258 257 257 258 258 258 258 259 259 259 260 260
261 261 262 262 262 263 263 263 264 264 264 265 264 264 262 261 258 256 253 253 252 250 249 248 247 247 248 248 249 249 249 249 249 249 250 250 249 249 249 249 249 249 248 248 248 248 248 248 248 249 249 250 250 251 251 252 252 252 252 253 253 254 254 254 254 254 254 254 254 255 255 256 257 258 258 257 257 257 257 257 257 258 258 259 259
260 260 260 261 261 261 262 263 263 264 264 264 264 264 264 263 262 259 257 255 256 255 254 252 250 248 248 248 249 250 250 250 250 250 251 251 251 250 250 250 250 250 250 250 250 250 250 250 250 250 250 251 251 252 252 252 253 253 253 253 254 254 254 254 254 254 255 255 254 255 255 255 255 257 257 257 257 257 257 256 256 256 257 258 258
260 259 259 259 260 260 260 261 262 262 263 263 263 263 263 264 264 263 261 259 258 258 258 257 256 253 251 250 249 250 250 250 250 251 251 251 251 251 250 250 251 251 251 251 252 252 252 252 252 252 252 252 252 253 253 253 254 254 254 254 255 255 255 255 255 255 255 255 255 255 255 255 255 255 256 256 256 256 256 256 255 255 255 256 257
260 259 258 258 258 258 259 259 260 261 262 262 263 263 263 263 263 264 264 263 261 260 260 260 259 258 256 253 251 251 251 250 250 250 251 252 251 251 250 250 250 251 251 252 252 253 253 253 254 254 254 254 254 254 254 254 255 255 255 256 256 256 256 256 256 256 256 255 255 255 255 255 255 255 255 256 255 255 254 255 255 255 255 254 255
259 259 258 258 258 258 258 258 259 259 260 261 262 263 264 263 263 262 262 262 262 262 262 261 260 258 258 257 255 254 253 252 251 250 251 252 252 252 251 251 251 251 251 252 252 252 253 253 254 254 255 255 256 256 256 256 257 257 257 257 257 257 258 258 258 257 257 256 256 255 255 255 255 255 255 255 255 255 254 254 254 254 254 254 254
259 259 258 258 258 258 258 258 258 259 259 259 260 261 262 264 264 264 263 262 262 262 262 261 260 259 259 258 258 256 255 254 253 252 252 253 253 253 253 252 251 252 252 252 253 253 253 254 254 255 255 256 256 257 257 258 258 258 258 259 259 259 259 259 259 258 258 258 257 256 256 255 255 254 254 254 255 255 254 253 253 253 253 253 253
259 258 258 258 258 258 258 258 259 259 259 259 259 259 260 261 263 264 264 263 262 262 261 261 261 261 260 259 258 257 256 256 255 254 254 255 255 256 255 254 253 253 253 253 254 254 255 255 255 256 256 256 257 258 258 259 259 259 259 259 260 260 260 260 260 260 260 260 260 259 258 258 257 256 255 255 254 254 254 253 253 253 252 252 252
259 258 258 258 258 258 258 258 258 259 259 259 259 259 259 259 260 261 263 263 262 261 260 260 261 262 261 259 258 257 256 256 256 256 256 256 256 257 258 257 256 254 254 254 254 255 255 256 257 257 257 258 258 259 260 260 261 261 261 261 261 261 261 261 261 261 261 261 261 261 260 260 259 258 258 257 256 255 254 253 253 253 252 251 251
260 259 259 259 259 258 258 258 258 258 258 259 259 259 259 259 258 259 260 260 260 260 260 260 260 261 260 260 259 258 258 257 257 258 258 257 257 258 258 259 258 257 256 256 256 256 255 255 256 257 258 258 259 260 261 262 262 262 263 263 262 262 262 262 262 262 261 261 261 261 261 261 260 260 260 259 258 256 255 253 252 253 253 252 251
260 260 260 259 259 259 258 258 258 257 257 257 257 258 258 257 257 257 257 257 258 259 259 259 259 259 260 260 259 259 258 258 258 258 258 258 259 259 259 260 261 261 260 259 259 258 258 257 257 257 257 258 259 260 261 262 262 262 263 263 263 262 262 262 262 262 262 261 261 261 261 261 262 261 261 260 259 258 257 255 253 253 253 253 252
259 259 259 258 258 258 257 257 257 257 256 256 255 256 256 256 256 255 254 254 255 256 257 258 259 259 260 260 260 260 259 259 259 259 259 259 259 260 261 261 262 263 263 263 263 262 262 262 261 261 260 260 259 259 260 260 261 261 262 262 262 262 262 262 262 262 261 261 261 261 261 262 263 263 262 262 262 261 260 259 257 255 254 253 253
259 259 259 259 258 258 258 257 257 257 256 256 255 254 254 254 254 253 253 252 252 253 255 256 258 260 262 262 261 261 260 260 260 260 260 260 260 261 262 263 264 265 266 267 268 268 268 267 267 267 266 265 263 263 262 261 261 261 261 261 261 261 260 260 260 260 260 261 261 262 262 263 264 265 266 266 266 265 263 260 258 256 254 253 252
259 260 260 260 259 259 258 258 257 256 256 256 255 254 253 253 254 253 253 252 252 252 254 256 258 260 262 262 262 261 261 261 261 261 261 261 262 262 263 264 265 266 267 269 271 272 272 272 272 272 270 269 268 267 266 264 263 263 262 261 260 259 258 258 259 260 261 261 262 263 264 265 266 268 269 269 268 266 263 260 257 254 253 252 251
259 260 261 261 261 260 259 258 258 256 256 255 255 255 254 254 254 254 254 253 252 252 253 255 257 259 260 262 262 262 262 262 262 262 262 263 263 263 264 265 266 267 269 270 271 273 274 275 274 273 271 270 269 268 267 267 266 265 263 260 258 258 258 259 259 260 261 262 264 265 267 268 268 269 268 267 265 263 261 258 256 254 252 251 250
260 260 261 261 260 259 258 257 257 256 255 254 254 254 255 255 255 256 255 253 252 253 254 255 256 257 259 261 262 262 262 262 262 262 263 264 264 265 266 266 267 268 269 270 271 273 273 274 274 273 271 270 269 267 267 266 265 263 261 260 261 261 261 260 261 262 263 265 267 268 268 267 267 266 264 263 262 261 259 257 256 254 253 251 250
260 259 258 258 257 255 254 254 254 253 252 251 251 251 252 253 255 255 255 254 253 254 255 255 255 256 258 259 260 261 261 262 263 263 264 265 266 267 268 268 269 269 270 271 272 272 273 273 272 272 271 269 268 267 266 264 263 262 262 263 263 262 261 261 262 264 265 266 267 267 266 265 264 263 262 261 261 260 258 257 255 254 252 251 250
261 259 257 256 254 254 253 252 252 251 250 249 248 248 249 249 251 254 256 258 257 256 254 254 255 256 258 260 261 262 262 263 263 264 264 264 265 266 268 269 270 270 271 272 272 272 272 272 272 271 271 270 270 268 266 264 263 262 262 262 262 261 262 263 264 265 265 265 264 264 263 262 262 261 261 261 260 259 258 256 255 253 252 251 250
259 257 255 254 255 255 254 253 252 250 249 247 247 246 246 246 249 253 256 259 260 260 258 257 257 258 260 261 263 264 265 265 265 265 264 264 264 265 266 268 269 270 271 272 272 272 272 272 272 272 272 272 270 268 265 263 262 261 261 262 263 264 265 265 265 264 264 263 262 262 262 261 261 261 261 261 260 259 257 255 254 253 252 251 249
256 255 254 254 254 253 252 251 250 249 249 248 247 247 247 247 249 252 255 258 260 262 262 262 261 261 261 262 263 263 262 263 264 265 266 266 266 266 267 267 268 270 271 272 272 271 271 272 272 273 272 271 268 265 263 262 262 263 263 264 264 265 265 265 264 264 263 263 262 263 263 263 262 262 261 260 259 258 257 255 254 252 251 249 248
257 255 254 252 250 249 248 249 249 249 249 249 249 249 249 250 251 253 255 257 259 262 263 265 265 264 263 262 262 261 262 262 264 265 266 267 268 268 268 268 268 269 270 271 271 271 271 271 272 272 270 267 264 263 264 265 265 265 265 265 265 265 265 265 265 265 265 265 265 265 264 263 262 261 260 259 258 257 257 256 255 253 251 249 248
256 254 252 249 247 247 247 247 247 248 248 248 249 249 250 252 253 254 256 258 260 262 263 264 264 263 263 263 263 264 265 265 266 266 267 267 268 268 268 268 269 269 270 270 270 271 272 274 272 269 266 264 264 266 267 267 267 266 266 265 265 265 266 266 267 267 267 267 266 265 263 263 262 261 259 258 258 257 256 255 254 253 252 251 249
255 253 251 249 248 247 245 244 244 245 245 246 246 247 248 249 250 252 253 255 257 258 259 259 260 262 263 264 265 266 266 267 267 267 267 267 267 268 268 268 268 268 268 270 272 275 275 272 268 265 264 265 267 268 267 266 266 266 266 265 265 266 267 268 269 269 268 267 265 264 262 261 260 259 258 258 257 256 254 253 252 252 251 251 249
254 251 249 247 246 245 243 242 242 242 242 242 243 243 244 245 247 248 249 250 251 253 254 256 259 261 262 263 264 264 265 266 266 266 266 266 267 267 267 267 267 268 270 274 276 276 272 266 264 264 266 267 267 266 266 265 265 266 266 266 267 267 268 269 270 270 269 267 265 262 260 259 258 258 257 257 256 254 253 251 250 250 250 250 249
251 248 245 242 240 238 237 237 237 238 239 240 241 242 243 243 244 244 245 246 248 250 253 255 257 258 259 260 261 262 263 263 264 264 264 264 265 265 265 267 270 273 275 276 274 270 266 265 265 266 266 266 265 265 265 264 265 266 267 268 268 269 270 270 271 270 268 265 262 259 256 256 256 256 256 256 254 252 251 249 249 249 249 249 249
249 246 242 239 237 235 233 233 233 234 235 237 238 238 239 239 240 241 242 244 247 249 251 253 254 256 257 259 260 261 262 263 263 264 264 264 265 266 269 272 275 277 276 274 269 265 264 265 265 264 264 264 264 264 264 265 266 267 267 268 269 270 271 272 270 267 264 261 258 255 254 254 255 255 255 254 252 250 249 248 247 247 248 248 249
247 243 239 237 235 234 233 232 232 232 233 234 235 236 237 238 239 241 242 244 246 248 250 251 253 255 257 259 261 262 263 263 264 264 265 266 268 271 274 277 278 278 275 271 267 264 263 264 264 263 262 262 263 264 266 267 268 268 268 269 271 272 272 271 268 264 261 258 256 254 254 254 254 255 254 253 251 250 249 248 247 247 248 248 248
242 239 236 234 232 231 231 231 231 231 232 233 234 236 237 238 239 241 242 244 245 247 249 252 254 256 258 260 261 262 262 263 264 265 267 269 272 274 277 278 278 275 271 267 264 263 262 262 263 263 264 264 264 266 267 268 268 267 269 270 272 272 271 268 265 262 259 257 255 254 254 254 254 253 253 252 251 250 250 249 249 249 249 249 249
239 235 231 228 227 226 226 227 228 230 232 233 234 235 235 236 237 238 239 241 243 246 249 251 254 256 258 260 261 262 263 264 265 266 268 271 273 276 277 276 273 270 266 264 262 261 261 262 263 265 266 267 268 267 267 266 266 268 269 271 271 269 267 264 262 260 258 256 254 253 252 253 252 252 251 251 250 251 251 251 251 251 252 252 251
235 227 222 220 218 218 219 221 222 224 226 227 228 229 230 231 232 233 235 238 242 245 248 251 254 257 258 259 260 262 264 266 267 268 270 272 273 275 274 272 268 264 262 261 261 260 260 262 264 266 268 269 270 268 267 266 267 269 270 270 269 267 266 263 260 258 257 255 253 252 251 251 250 250 250 251 251 252 253 254 254 254 254 253 252
223 217 213 210 210 211 213 213 215 217 220 221 221 223 224 225 227 230 234 238 242 246 249 252 255 257 258 260 261 263 265 266 267 269 271 272 272 272 269 265 261 258 258 260 261 262 262 262 264 266 268 269 268 267 267 268 269 270 270 269 268 268 267 264 260 258 257 255 253 251 250 250 250 250 251 252 254 255 255 255 255 254 254 254 253
212 209 207 207 207 208 208 209 212 214 215 217 218 220 222 224 227 232 236 241 245 248 251 254 257 258 260 262 262 263 264 265 267 268 269 269 268 265 261 258 256 257 258 260 262 263 263 264 264 265 265 265 265 266 266 268 269 270 270 271 271 269 267 263 259 257 255 254 253 251 250 250 251 252 253 255 256 257 256 255 254 253 253 253 252
208 206 206 206 205 205 205 207 209 211 213 216 218 222 225 228 232 236 240 245 248 252 255 257 258 260 262 264 264 263 263 264 265 265 266 264 261 256 251 251 253 256 259 261 262 264 265 266 264 263 263 262 264 265 266 268 269 270 271 271 269 267 263 259 256 253 253 253 253 252 251 250 250 252 254 257 258 258 256 254 253 252 252 252 250
209 207 207 206 205 205 207 209 210 212 215 218 221 225 228 232 236 240 243 247 251 254 257 260 259 259 262 263 263 262 261 261 262 261 260 257 252 246 243 244 249 254 257 260 263 266 267 267 266 265 264 263 264 266 268 270 271 271 270 268 265 262 258 254 250 249 250 252 253 252 251 249 249 251 254 257 258 258 256 255 254 253 252 251 249
213 212 210 208 208 210 212 213 214 216 219 222 225 229 232 235 239 242 245 248 251 254 258 260 260 259 261 262 261 259 258 258 258 255 252 249 244 238 236 238 244 250 255 259 262 264 265 266 267 267 266 267 268 269 271 271 271 269 267 264 260 256 252 248 245 245 248 252 254 253 251 249 248 250 254 258 259 258 257 256 256 255 254 251 248
217 216 213 212 214 216 217 219 221 223 226 228 230 233 236 239 242 243 245 247 250 254 257 260 260 259 260 260 259 256 254 254 253 249 245 242 238 233 230 233 240 247 252 257 260 262 264 266 268 269 270 270 270 271 271 271 270 266 261 256 252 248 245 241 240 241 246 252 255 254 251 248 248 251 255 259 259 258 256 255 254 252 249 246 243
221 219 217 217 220 221 222 224 228 230 232 234 235 237 240 243 245 246 247 249 251 254 257 259 260 259 258 258 257 253 249 248 248 244 240 237 234 230 227 230 236 243 248 253 257 260 263 266 269 271 272 272 272 271 271 270 267 260 251 244 241 239 237 236 236 239 246 252 255 254 250 247 247 252 256 258 258 256 254 251 247 244 241 238 235
225 224 223 222 224 225 227 229 232 234 236 238 240 241 243 246 247 248 249 250 252 255 257 258 260 258 255 255 255 250 245 243 243 241 237 234 232 228 226 228 232 238 245 249 253 258 262 265 268 271 271 272 271 272 270 267 260 250 239 233 232 232 232 232 234 238 245 252 255 253 248 245 247 250 254 254 253 251 249 245 241 236 234 232 231
227 228 228 227 227 229 231 233 235 237 239 241 243 244 246 248 249 249 249 250 252 254 256 257 258 256 251 250 251 248 241 238 239 239 236 233 231 228 227 227 230 235 240 246 252 257 261 265 268 270 271 270 271 271 269 262 250 238 229 225 223 225 229 231 233 238 245 252 253 250 245 243 244 247 248 247 246 246 244 241 237 232 229 228 229
230 231 231 230 230 232 234 236 237 239 241 242 244 246 248 249 249 249 249 250 252 254 255 256 256 254 249 247 248 247 240 235 235 237 236 233 230 228 227 228 229 232 236 243 250 256 261 265 269 270 271 270 270 268 262 252 238 227 220 217 215 218 224 229 232 236 242 246 247 244 241 241 243 244 244 242 240 239 239 238 233 228 225 225 226
233 235 235 234 234 235 236 238 238 240 241 243 244 246 248 249 249 248 248 250 251 253 254 255 255 253 248 244 244 244 239 233 232 234 235 233 229 227 227 228 228 229 233 239 246 252 260 266 270 271 271 269 264 258 250 240 227 218 214 212 210 212 219 225 229 231 235 238 238 236 236 237 239 241 241 240 236 232 231 232 229 226 222 219 219
Height
10515 10517 10518 10520 10523 10525 10527 10530 10531 10533 10535 10536 10538 10540 10541 10544 10546 10547 10548 10549 10549 10550 10551 10552 10553 10555 10556 10558 10559 10561 10563 10564 10565 10566 10568 10569 10571 10573 10574 10576 10577 10579 10581 10583 10584 10586 10588 10590 10591 10593 10595 10598 10600 10602 10604 10606 10607 10610 10612 10614 10617 10618 10619 10620 10619 10617 10620 10625 10626 10627 10631 10633 10633 10634 10637 10639 10641 10643 10644 10645 10647 10648 10648 10648 10649
10507 10508 10509 10510 10512 10515 10518 10520 10521 10523 10525 10527 10527 10529 10531 10534 10536 10537 10539 10540 10541 10542 10543 10544 10546 10547 10549 10550 10552 10554 10556 10558 10559 10560 10561 10563 10564 10566 10567 10569 10571 10573 10574 10575 10577 10579 10580 10582 10584 10586 10588 10590 10592 10595 10597 10598 10600 10602 10604 10606 10609 10611 10612 10613 10613 10610 10610 10615 10618 10619 10622 10625 10626 10626 10629 10632 10633 10636 10637 10638 10639 10641 10641 10642 10643
10496 10498 10499 10499 10502 10505 10507 10509 10511 10514 10517 10517 10518 10519 10521 10524 10526 10528 10529 10531 10532 10533 10535 10536 10537 10539 10541 10542 10544 10546 10548 10550 10551 10553 10554 10556 10557 10559 10560 10562 10564 10566 10567 10569 10570 10571 10573 10574 10576 10578 10580 10582 10584 10587 10589 10591 10593 10594 10596 10598 10601 10603 10606 10607 10606 10605 10603 10604 10609 10612 10613 10616 10617 10618 10621 10623 10624 10627 10629 10630 10632 10633 10634 10635 10636
10485 10487 10488 10489 10491 10495 10496 10497 10501 10505 10506 10506 10507 10509 10512 10515 10517 10519 10520 10521 10523 10524 10526 10527 10528 10529 10532 10534 10536 10537 10539 10541 10542 10544 10546 10548 10549 10551 10553 10554 10556 10557 10559 10561 10562 10564 10565 10567 10568 10570 10572 10574 10576 10578 10580 10582 10584 10586 10588 10590 10592 10595 10597 10599 10600 10599 10598 10596 10599 10603 10605 10606 10608 10609 10611 10614 10615 10617 10619 10621 10624 10626 10627 10628 10629
10474 10476 10477 10479 10481 10483 10484 10485 10489 10493 10494 10495 10497 10498 10502 10505 10508 10509 10510 10511 10513 10515 10515 10516 10517 10519 10522 10525 10526 10528 10529 10530 10532 10534 10536 10538 10540 10542 10544 10545 10547 10548 10550 10552 10554 10555 10557 10559 10560 10562 10563 10565 10567 10569 10571 10573 10575 10577 10579 10581 10584 10587 10589 10591 10592 10592 10592 10590 10590 10593 10596 10597 10598 10599 10601 10603 10605 10607 10609 10611 10614 10618 10619 10620 10622
10464 10464 10466 10468 10469 10471 10472 10474 10477 10479 10482 10484 10486 10488 10491 10494 10496 10498 10500 10501 10503 10504 10505 10505 10506 10508 10511 10514 10516 10517 10518 10519 10521 10524 10526 10528 10530 10531 10533 10535 10537 10538 10540 10542 10544 10546 10548 10550 10551 10553 10554 10556 10558 10560 10562 10564 10566 10568 10570 10572 10575 10578 10580 10582 10584 10585 10585 10584 10582 10584 10587 10588 10589 10589 10589 10592 10595 10596 10598 10600 10604 10608 10610 10612 10614
10452 10453 10454 10456 10458 10459 10461 10463 10465 10467 10469 10472 10475 10477 10479 10481 10483 10486 10489 10492 10494 10495 10495 10495 10496 10498 10500 10503 10505 10506 10506 10508 10511 10514 10516 10517 10519 10521 10522 10524 10526 10528 10530 10533 10534 10536 10538 10540 10541 10543 10544 10546 10547 10550 10552 10555 10557 10558 10560 10563 10566 10568 10571 10573 10575 10577 10577 10577 10575 10575 10577 10579 10580 10579 10578 10581 10585 10586 10587 10591 10594 10596 10599 10602 10605
10442 10443 10444 10446 10447 10448 10449 10452 10453 10455 10457 10459 10462 10466 10468 10469 10472 10475 10479 10483 10485 10486 10486 10485 10485 10486 10488 10490 10491 10492 10494 10497 10500 10502 10504 10505 10507 10509 10511 10513 10516 10518 10521 10523 10524 10526 10528 10529 10531 10533 10534 10535 10537 10539 10542 10544 10546 10548 10550 10553 10556 10558 10560 10563 10565 10567 10568 10569 10568 10566 10567 10569 10571 10569 10567 10569 10574 10575 10576 10580 10583 10584 10587 10591 10594
10433 10433 10434 10435 10436 10437 10438 10440 10441 10443 10445 10447 10450 10453 10455 10458 10461 10464 10470 10475 10476 10476 10475 10473 10472 10473 10475 10477 10478 10479 10482 10486 10489 10491 10492 10494 10496 10498 10500 10503 10505 10507 10510 10512 10514 10516 10518 10519 10521 10522 10523 10525 10526 10529 10531 10533 10536 10538 10540 10543 10546 10548 10550 10552 10554 10556 10557 10559 10559 10558 10558 10559 10559 10559 10558 10558 10562 10565 10567 10570 10573 10573 10575 10579 10581
10423 10423 10423 10424 10426 10427 10427 10428 10429 10431 10433 10435 10437 10440 10443 10448 10450 10454 10461 10463 10464 10464 10459 10456 10459 10461 10462 10464 10465 10466 10469 10473 10476 10478 10479 10482 10485 10487 10489 10492 10494 10496 10499 10501 10503 10505 10507 10509 10510 10511 10513 10514 10516 10518 10520 10522 10525 10528 10530 10533 10536 10538 10540 10541 10542 10544 10547 10548 10549 10549 10549 10549 10547 10547 10549 10548 10550 10554 10557 10559 10562 10563 10564 10566 10569
10413 10414 10413 10413 10414 10415 10416 10417 10419 10420 10421 10423 10425 10428 10432 10436 10438 10445 10449 10446 10445 10446 10444 10442 10447 10451 10451 10452 10453 10453 10456 10460 10463 10465 10467 10471 10474 10476 10478 10480 10483 10485 10487 10489 10491 10494 10496 10498 10499 10500 10502 10504 10506 10508 10510 10512 10515 10518 10520 10522 10524 10526 10528 10529 10531 10533 10535 10537 10538 10538 10539 10538 10536 10535 10538 10539 10539 10542 10546 10549 10551 10552 10552 10554 10556
10404 10404 10403 10403 10403 10403 10404 10406 10407 10409 10410 10412 10414 10417 10420 10423 10425 10431 10435 10432 10431 10433 10432 10432 10435 10439 10440 10441 10440 10441 10444 10449 10453 10456 10458 10461 10464 10466 10467 10470 10472 10474 10476 10478 10480 10482 10484 10485 10487 10489 10491 10493 10496 10498 10500 10502 10504 10506 10509 10511 10512 10514 10515 10517 10519 10520 10522 10525 10526 10526 10527 10527 10525 10524 10525 10528 10529 10531 10534 10537 10539 10540 10541 10543 10545
10394 10394 10393 10393 10393 10392 10393 10395 10397 10398 10399 10401 10404 10406 10407 10409 10412 10418 10422 10423 10423 10422 10421 10421 10424 10428 10430 10429 10428 10430 10434 10439 10444 10446 10447 10449 10452 10454 10456 10459 10461 10463 10465 10467 10468 10470 10471 10473 10475 10477 10479 10482 10484 10486 10489 10491 10492 10495 10497 10499 10500 10501 10502 10504 10506 10507 10508 10511 10513 10514 10513 10513 10515 10514 10512 10514 10518 10519 10521 10524 10526 10529 10530 10532 10534
10382 10383 10382 10382 10382 10382 10383 10385 10387 10387 10389 10391 10393 10395 10396 10397 10400 10404 10409 10411 10412 10411 10410 10410 10412 10416 10417 10416 10417 10420 10424 10428 10432 10434 10434 10436 10438 10441 10444 10447 10449 10451 10453 10455 10456 10458 10459 10461 10463 10465 10467 10469 10472 10474 10477 10479 10481 10483 10485 10486 10488 10488 10489 10491 10493 10494 10495 10496 10498 10500 10500 10500 10503 10503 10500 10500 10503 10506 10508 10510 10512 10516 10519 10521 10523
10369 10369 10370 10370 10371 10372 10374 10376 10377 10378 10378 10380 10382 10384 10386 10388 10390 10392 10394 10398 10399 10398 10398 10398 10399 10400 10400 10402 10407 10410 10413 10417 10421 10422 10422 10422 10424 10427 10430 10435 10437 10439 10441 10443 10444 10446 10448 10449 10451 10453 10455 10457 10459 10461 10464 10467 10469 10471 10472 10473 10474 10475 10477 10477 10478 10480 10481 10482 10484 10486 10487 10487 10488 10489 10487 10485 10487 10491 10494 10497 10499 10502 10506 10510 10511
10355 10355 10356 10358 10359 10361 10364 10366 10368 10368 10369 10371 10372 10373 10374 10376 10378 10380 10382 10385 10386 10385 10385 10384 10383 10383 10385 10389 10395 10399 10401 10404 10407 10409 10409 10410 10411 10413 10417 10422 10426 10427 10428 10430 10432 10434 10435 10437 10439 10441 10443 10445 10446 10448 10451 10454 10457 10459 10460 10461 10461 10462 10463 10463 10463 10464 10465 10466 10468 10470 10472 10473 10473 10474 10474 10472 10472 10475 10479 10484 10487 10488 10491 10495 10498
10342 10341 10343 10345 10347 10350 10353 10355 10357 10358 10359 10361 10363 10365 10364 10364 10365 10367 10370 10373 10374 10373 10372 10369 10366 10369 10375 10379 10382 10386 10388 10390 10392 10395 10397 10398 10399 10400 10404 10409 10413 10414 10415 10417 10419 10421 10423 10425 10427 10429 10431 10433 10433 10435 10437 10440 10444 10446 10448 10449 10449 10449 10449 10447 10447 10447 10449 10451 10453 10455 10457 10458 10458 10458 10458 10458 10458 10459 10463 10470 10472 10471 10476 10482 10485
10328 10329 10331 10334 10337 10339 10341 10343 10346 10347 10348 10350 10352 10355 10356 10356 10355 10355 10357 10360 10361 10360 10358 10355 10353 10357 10364 10367 10370 10372 10374 10376 10378 10381 10383 10385 10386 10387 10390 10395 10399 10401 10403 10404 10407 10409 10411 10412 10414 10416 10419 10420 10421 10423 10424 10427 10430 10433 10435 10436 10436 10436 10434 10431 10431 10433 10435 10436 10438 10439 10440 10441 10442 10442 10443 10444 10444 10444 10449 10455 10455 10454 10461 10469 10470
10315 10318 10321 10323 10325 10328 10330 10332 10334 10336 10337 10339 10341 10344 10346 10347 10347 10346 10347 10347 10347 10346 10346 10344 10343 10345 10350 10355 10358 10361 10363 10364 10366 10368 10371 10373 10375 10376 10377 10380 10384 10388 10390 10392 10395 10397 10399 10400 10401 10403 10405 10407 10409 10410 10412 10413 10416 10418 10420 10422 10423 10421 10418 10416 10418 10420 10420 10420 10420 10422 10423 10423 10424 10426 10428 10429 10429 10429 10433 10439 10439 10439 10446 10452 10455
10305 10308 10311 10313 10315 10318 10320 10321 10323 10325 10326 10328 10331 10333 10335 10335 10336 10337 10337 10335 10334 10333 10334 10334 10334 10334 10338 10343 10347 10350 10352 10354 10356 10357 10359 10361 10363 10364 10365 10366 10369 10374 10377 10379 10382 10384 10386 10388 10389 10390 10392 10394 10396 10398 10399 10399 10401 10403 10405 10406 10407 10405 10402 10402 10404 10403 10403 10403 10403 10403 10403 10404 10406 10410 10412 10412 10411 10411 10415 10421 10425 10427 10431 10435 10440
10296 10297 10300 10302 10304 10307 10309 10310 10311 10313 10316 10318 10320 10322 10323 10324 10325 10326 10325 10323 10322 10322 10322 10323 10323 10324 10328 10333 10337 10340 10342 10344 10345 10347 10348 10349 10350 10352 10353 10354 10356 10359 10363 10365 10368 10370 10372 10374 10376 10378 10379 10381 10383 10384 10385 10385 10385 10387 10388 10389 10389 10388 10386 10387 10387 10386 10386 10386 10386 10385 10385 10386 10389 10392 10393 10393 10393 10394 10397 10404 10411 10415 10418 10422 10427
10285 10286 10288 10291 10293 10296 10297 10298 10300 10302 10304 10307 10310 10311 10311 10313 10314 10314 10313 10312 10312 10311 10310 10311 10313 10315 10319 10324 10328 10330 10332 10333 10335 10336 10338 10339 10339 10340 10342 10343 10344 10347 10350 10352 10353 10356 10358 10360 10362 10364 10365 10367 10368 10369 10370 10370 10371 10372 10373 10373 10373 10371 10370 10370 10370 10369 10369 10369 10369 10370 10371 10371 10372 10373 10374 10375 10377 10380 10383 10389 10396 10401 10405 10409 10411
10274 10276 10278 10281 10283 10286 10287 10287 10289 10291 10293 10297 10300 10300 10300 10301 10301 10302 10302 10302 10301 10300 10300 10302 10305 10308 10312 10315 10318 10320 10322 10323 10324 10325 10327 10328 10329 10330 10331 10332 10333 10335 10337 10338 10339 10342 10345 10346 10348 10350 10351 10353 10354 10354 10355 10356 10357 10358 10359 10358 10357 10355 10354 10354 10354 10353 10353 10355 10356 10358 10358 10357 10357 10357 10358 10361 10363 10366 10369 10373 10378 10382 10386 10389 10392
10266 10268 10269 10271 10274 10275 10276 10277 10279 10281 10284 10287 10289 10288 10289 10290 10291 10290 10291 10291 10292 10292 10293 10295 10298 10301 10304 10306 10308 10310 10311 10313 10314 10315 10316 10317 10318 10319 10320 10321 10322 10324 10325 10326 10327 10328 10331 10333 10334 10336 10337 10338 10340 10341 10341 10342 10343 10345 10345 10343 10341 10339 10338 10339 10339 10340 10342 10344 10344 10344 10345 10344 10345 10346 10346 10348 10351 10352 10353 10355 10358 10362 10365 10369 10373
10259 10260 10261 10262 10264 10265 10266 10268 10269 10272 10276 10278 10278 10277 10279 10280 10280 10280 10280 10280 10282 10283 10285 10289 10292 10294 10295 10296 10298 10300 10302 10303 10304 10305 10305 10306 10307 10308 10309 10310 10311 10313 10314 10315 10316 10317 10319 10321 10322 10324 10325 10326 10328 10329 10330 10331 10331 10331 10329 10327 10326 10326 10326 10328 10329 10330 10332 10332 10332 10333 10334 10334 10334 10335 10335 10336 10338 10339 10339 10341 10344 10346 10349 10352 10356
10252 10253 10253 10254 10255 10256 10257 10258 10260 10264 10267 10268 10267 10267 10268 10270 10270 10269 10268 10269 10272 10275 10279 10283 10286 10287 10287 10288 10290 10291 10293 10294 10294 10295 10296 10297 10297 10298 10299 10300 10301 10302 10303 10305 10306 10308 10309 10310 10311 10313 10314 10316 10317 10319 10320 10320 10319 10317 10315 10315 10315 10316 10317 10318 10319 10320 10321 10321 10322 10324 10324 10323 10323 10323 10324 10324 10326 10326 10328 10330 10332 10334 10335 10338 10342
10244 10244 10244 10244 10245 10246 10248 10249 10252 10255 10257 10258 10258 10258 10260 10261 10260 10258 10256 10259 10265 10270 10273 10276 10278 10279 10279 10280 10281 10283 10284 10285 10286 10287 10287 10288 10288 10288 10289 10290 10291 10292 10293 10295 10296 10298 10299 10300 10301 10303 10304 10306 10308 10309 10309 10308 10306 10306 10306 10306 10306 10306 10306 10307 10309 10311 10312 10312 10313 10312 10311 10311 10311 10311 10312 10314 10314 10315 10317 10319 10321 10322 10323 10325 10330
10234 10233 10233 10234 10235 10237 10239 10242 10245 10246 10247 10248 10249 10250 10252 10252 10250 10248 10249 10253 10258 10262 10265 10268 10270 10271 10271 10272 10273 10274 10276 10277 10278 10278 10279 10279 10279 10279 10280 10281 10281 10282 10283 10285 10287 10288 10289 10290 10292 10294 10296 10297 10298 10297 10297 10297 10297 10297 10297 10296 10295 10295 10296 10298 10300 10301 10302 10302 10301 10301 10300 10301 10301 10301 10302 10303 10304 10304 10306 10309 10310 10310 10311 10314 10318
10222 10222 10223 10225 10227 10229 10232 10234 10235 10236 10237 10238 10239 10241 10242 10242 10241 10242 10244 10247 10250 10253 10257 10261 10263 10264 10264 10265 10266 10267 10267 10267 10267 10268 10269 10269 10270 10271 10272 10272 10273 10273 10274 10276 10277 10278 10280 10281 10283 10285 10287 10288 10288 10287 10286 10287 10287 10287 10287 10286 10286 10287 10288 10289 10290 10291 10291 10292 10291 10291 10291 10291 10291 10291 10293 10294 10294 10295 10297 10299 10300 10300 10301 10304 10306
10212 10213 10215 10218 10220 10221 10222 10223 10224 10225 10227 10230 10232 10233 10235 10236 10237 10238 10240 10242 10244 10246 10250 10253 10256 10257 10258 10258 10258 10257 10257 10257 10257 10258 10259 10260 10262 10263 10264 10264 10265 10266 10267 10268 10269 10270 10272 10274 10276 10278 10279 10279 10277 10276 10276 10277 10277 10277 10278 10278 10278 10278 10278 10279 10281 10281 10282 10282 10282 10282 10283 10283 10283 10284 10285 10285 10285 10286 10288 10290 10290 10291 10292 10294 10295
10204 10205 10207 10209 10209 10209 10211 10213 10216 10218 10220 10223 10226 10227 10228 10230 10232 10233 10235 10237 10239 10241 10243 10246 10247 10248 10248 10248 10248 10247 10248 10249 10250 10251 10251 10252 10253 10254 10255 10256 10257 10257 10258 10259 10260 10262 10265 10268 10269 10270 10269 10268 10266 10266 10268 10269 10269 10269 10269 10269 10270 10270 10270 10271 10272 10273 10273 10274 10274 10275 10275 10274 10275 10275 10276 10276 10277 10278 10280 10281 10282 10283 10283 10285 10286
10196 10197 10198 10199 10199 10200 10204 10207 10209 10211 10213 10216 10219 10220 10222 10224 10227 10228 10230 10232 10233 10235 10237 10237 10237 10237 10238 10239 10239 10240 10241 10241 10242 10243 10243 10244 10245 10245 10246 10248 10249 10249 10250 10252 10253 10256 10259 10261 10261 10259 10258 10257 10258 10259 10260 10260 10260 10261 10261 10261 10262 10263 10263 10263 10264 10265 10265 10266 10267 10267 10267 10266 10267 10267 10268 10269 10270 10271 10272 10273 10274 10275 10275 10276 10277
10188 10188 10189 10190 10192 10194 10197 10199 10201 10203 10206 10209 10211 10213 10216 10218 10221 10223 10225 10226 10227 10228 10228 10228 10228 10230 10231 10232 10233 10233 10233 10234 10234 10235 10235 10236 10236 10237 10238 10240 10241 10242 10243 10245 10248 10251 10252 10252 10250 10249 10249 10250 10251 10252 10252 10252 10253 10254 10254 10255 10255 10256 10256 10256 10257 10257 10258 10259 10259 10259 10259 10259 10259 10260 10260 10262 10263 10264 10265 10266 10267 10267 10268 10269 10269
10180 10181 10182 10184 10185 10188 10190 10192 10194 10197 10200 10202 10204 10207 10209 10212 10214 10217 10219 10220 10220 10220 10221 10222 10223 10224 10225 10226 10226 10226 10227 10227 10228 10228 10228 10229 10229 10230 10231 10232 10233 10236 10239 10241 10243 10244 10243 10241 10241 10241 10242 10243 10244 10245 10245 10246 10247 10248 10248 10248 10249 10249 10249 10250 10250 10251 10252 10252 10252 10253 10252 10252 10253 10253 10254 10255 10256 10257 10258 10259 10260 10260 10261 10261 10262
10174 10175 10176 10177 10179 10181 10183 10185 10188 10191 10194 10196 10198 10201 10204 10207 10209 10211 10212 10213 10214 10215 10216 10217 10218 10218 10219 10220 10220 10220 10220 10221 10221 10222 10222 10222 10223 10223 10225 10226 10229 10232 10235 10236 10237 10236 10234 10233 10235 10236 10237 10237 10238 10239 10240 10241 10241 10242 10242 10242 10242 10243 10243 10244 10245 10245 10245 10246 10246 10246 10246 10246 10247 10248 10248 10249 10250 10251 10252 10253 10253 10254 10254 10255 10256
10169 10170 10171 10172 10174 10176 10178 10180 10183 10186 10188 10191 10194 10196 10199 10201 10203 10204 10206 10207 10209 10210 10211 10212 10212 10213 10213 10213 10213 10214 10214 10215 10215 10216 10216 10216 10217 10219 10221 10223 10225 10227 10229 10229 10229 10228 10228 10228 10229 10231 10231 10232 10233 10234 10235 10235 10236 10236 10235 10235 10236 10237 10238 10238 10239 10239 10239 10240 10240 10240 10240 10241 10242 10242 10243 10244 10245 10245 10246 10247 10247 10248 10248 10249 10250
10164 10165 10166 10168 10170 10172 10174 10176 10178 10181 10183 10186 10189 10191 10193 10195 10197 10199 10201 10202 10203 10204 10205 10206 10207 10207 10207 10208 10208 10208 10209 10209 10210 10210 10211 10212 10213 10215 10217 10219 10220 10222 10222 10222 10222 10223 10223 10223 10224 10225 10227 10228 10228 10229 10229 10230 10230 10230 10230 10230 10231 10232 10233 10233 10233 10233 10234 10234 10235 10235 10235 10236 10237 10237 10238 10239 10239 10240 10240 10241 10242 10242 10243 10244 10245
10160 10161 10163 10164 10166 10168 10170 10172 10174 10176 10179 10181 10184 10186 10188 10190 10192 10194 10196 10197 10198 10199 10200 10200 10201 10202 10202 10203 10203 10203 10204 10205 10205 10206 10207 10208 10210 10211 10213 10215 10216 10216 10216 10217 10217 10218 10219 10219 10220 10220 10222 10223 10224 10224 10225 10225 10224 10224 10225 10226 10227 10227 10228 10228 10228 10228 10229 10230 10230 10230 10231 10231 10232 10233 10233 10234 10234 10235 10235 10236 10237 10237 10238 10239 10240
10157 10159 10160 10161 10163 10165 10166 10168 10171 10173 10175 10178 10180 10182 10184 10186 10187 10189 10190 10191 10193 10194 10195 10195 10196 10197 10198 10198 10198 10199 10200 10201 10202 10203 10204 10205 10206 10208 10209 10210 10211 10211 10211 10212 10213 10214 10215 10215 10216 10216 10217 10218 10219 10220 10220 10220 10220 10220 10221 10222 10223 10223 10223 10223 10223 10224 10225 10225 10226 10226 10227 10227 10228 10228 10229 10229 10230 10230 10231 10232 10232 10233 10234 10234 10236
10155 10156 10157 10159 10160 10162 10164 10166 10168 10170 10172 10174 10176 10178 10180 10182 10183 10184 10186 10187 10188 10189 10191 10192 10192 10193 10193 10194 10195 10196 10197 10197 10198 10199 10200 10202 10203 10204 10205 10206 10207 10207 10207 10208 10209 10210 10211 10212 10212 10212 10213 10214 10214 10215 10215 10216 10216 10217 10218 10218 10218 10219 10219 10219 10219 10220 10221 10221 10222 10222 10223 10224 10224 10224 10225 10225 10226 10226 10227 10228 10228 10229 10230 10230 10231
10153 10154 10155 10157 10158 10160 10162 10164 10166 10168 10170 10172 10174 10175 10177 10178 10180 10181 10182 10184 10185 10186 10187 10188 10189 10189 10190 10190 10191 10193 10193 10193 10194 10195 10197 10198 10199 10201 10201 10202 10203 10203 10204 10205 10206 10207 10208 10208 10208 10209 10210 10210 10211 10211 10212 10212 10213 10213 10214 10214 10214 10214 10215 10215 10216 10216 10217 10218 10218 10219 10219 10220 10221 10221 10222 10222 10223 10223 10224 10225 10225 10225 10226 10227 10228
10150 10152 10153 10154 10156 10158 10160 10162 10164 10165 10167 10169 10171 10172 10173 10175 10176 10178 10179 10181 10182 10183 10184 10185 10185 10186 10186 10187 10188 10190 10190 10189 10190 10192 10193 10194 10196 10197 10198 10198 10199 10200 10201 10202 10202 10203 10204 10205 10205 10206 10207 10207 10207 10208 10209 10209 10209 10209 10210 10210 10210 10211 10211 10212 10213 10213 10214 10214 10215 10216 10217 10217 10218 10219 10219 10220 10220 10221 10221 10221 10222 10222 10223 10223 10224
10148 10150 10151 10153 10155 10157 10159 10160 10162 10163 10165 10166 10168 10169 10171 10172 10174 10175 10176 10178 10179 10180 10181 10181 10182 10182 10183 10183 10184 10186 10186 10186 10187 10189 10190 10191 10193 10194 10194 10195 10196 10196 10198 10199 10199 10200 10201 10202 10202 10203 10204 10204 10205 10205 10205 10206 10206 10206 10206 10206 10207 10207 10208 10209 10210 10210 10211 10212 10212 10213 10214 10215 10215 10216 10217 10217 10217 10217 10218 10218 10219 10219 10220 10220 10221
10146 10148 10150 10152 10154 10155 10156 10158 10159 10161 10162 10164 10165 10166 10168 10169 10171 10172 10173 10175 10176 10177 10177 10178 10178 10179 10180 10180 10181 10182 10182 10182 10184 10185 10186 10188 10189 10190 10191 10192 10193 10194 10195 10196 10197 10197 10198 10199 10199 10200 10201 10201 10202 10202 10202 10202 10202 10202 10203 10203 10204 10204 10205 10206 10207 10208 10209 10209 10210 10210 10211 10212 10212 10213 10214 10214 10214 10215 10215 10215 10216 10216 10217 10217 10218
10145 10147 10149 10151 10152 10153 10154 10155 10157 10158 10159 10161 10162 10164 10165 10167 10168 10169 10171 10172 10173 10174 10174 10174 10175 10176 10176 10176 10178 10179 10179 10179 10180 10182 10183 10184 10186 10187 10188 10189 10190 10191 10192 10193 10194 10195 10195 10196 10196 10197 10198 10198 10198 10199 10199 10199 10199 10199 10200 10200 10201 10202 10203 10204 10205 10206 10206 10207 10207 10207 10208 10209 10210 10210 10211 10211 10212 10212 10212 10212 10213 10213 10214 10215 10215
10143 10145 10147 10148 10149 10150 10152 10153 10154 10156 10157 10158 10159 10161 10162 10163 10165 10166 10167 10169 10170 10170 10171 10171 10172 10173 10173 10173 10174 10175 10175 10175 10177 10179 10180 10182 10183 10184 10185 10186 10188 10189 10190 10191 10192 10192 10192 10193 10194 10194 10195 10195 10195 10195 10195 10195 10196 10196 10196 10197 10198 10199 10200 10201 10203 10203 10204 10204 10204 10205 10205 10206 10207 10208 10208 10209 10209 10210 10210 10210 10210 10211 10211 10212 10213
10140 10142 10144 10145 10146 10148 10150 10151 10152 10153 10154 10155 10157 10158 10159 10160 10162 10163 10164 10165 10166 10167 10167 10168 10169 10169 10170 10170 10170 10171 10172 10172 10173 10175 10177 10179 10180 10182 10183 10184 10185 10186 10187 10188 10189 10190 10190 10190 10191 10192 10191 10192 10192 10192 10192 10192 10193 10193 10193 10194 10195 10197 10198 10199 10200 10201 10202 10202 10202 10203 10203 10204 10205 10205 10206 10206 10207 10207 10208 10208 10208 10209 10209 10210 10211
10136 10138 10140 10142 10143 10145 10147 10148 10149 10150 10151 10153 10154 10155 10156 10157 10158 10160 10161 10162 10163 10163 10164 10164 10165 10166 10166 10167 10167 10168 10169 10169 10170 10172 10174 10176 10177 10179 10180 10181 10182 10184 10185 10186 10186 10187 10187 10188 10189 10189 10189 10189 10189 10189 10189 10189 10190 10190 10191 10192 10193 10195 10196 10197 10198 10199 10200 10200 10200 10201 10202 10202 10203 10203 10204 10204 10204 10205 10205 10206 10206 10207 10208 10208 10209
10132 10134 10136 10138 10140 10141 10143 10145 10146 10147 10148 10149 10151 10152 10153 10154 10155 10156 10157 10158 10159 10159 10160 10161 10162 10162 10163 10163 10164 10164 10165 10166 10167 10169 10171 10173 10175 10176 10177 10179 10180 10181 10183 10183 10184 10184 10185 10186 10186 10186 10186 10186 10186 10187 10187 10187 10187 10188 10189 10190 10191 10193 10195 10196 10196 10197 10198 10199 10199 10200 10200 10201 10201 10202 10202 10202 10203 10203 10204 10204 10205 10205 10206 10207 10208
10128 10130 10132 10134 10136 10138 10139 10141 10142 10143 10144 10146 10147 10148 10149 10150 10151 10153 10154 10154 10155 10156 10156 10157 10158 10159 10160 10160 10160 10161 10162 10163 10164 10166 10168 10170 10172 10173 10175 10176 10177 10179 10180 10181 10181 10182 10183 10183 10183 10183 10183 10183 10184 10184 10184 10184 10185 10186 10187 10188 10189 10191 10193 10194 10195 10196 10197 10197 10198 10199 10199 10200 10200 10201 10201 10201 10202 10202 10203 10203 10204 10204 10205 10206 10207
10125 10127 10129 10131 10132 10134 10135 10136 10138 10139 10140 10142 10143 10144 10146 10147 10148 10149 10150 10150 10151 10152 10152 10153 10154 10155 10156 10157 10157 10158 10159 10160 10161 10163 10164 10166 10169 10170 10172 10173 10174 10176 10178 10178 10179 10179 10180 10181 10181 10181 10181 10181 10181 10182 10182 10182 10183 10184 10185 10186 10187 10189 10191 10192 10193 10194 10195 10196 10197 10198 10198 10198 10199 10199 10200 10200 10201 10202 10202 10203 10203 10204 10205 10206 10207